Location: Kerb�bon
(47.7970°N, 3.3487°W)
Time: 12:16:32
(UTC+00:00)

Cosmos 1833 Rocket - Pass Details

Date: 12 May 2021
Orbit: 831 x 841 km, 71.0° (Epoch: 18 June)

Event Time Altitude Azimuth Distance (km) Brightness Sun altitude
Rises 20:37:51 0° 334° (NNW) 3,407 7.2 -8.7°
Reaches altitude 10° 20:40:20 10° 338° (NNW) 2,469 6.2 -9.0°
Maximum altitude 20:45:57 61° 59° (ENE) 956 2.9 -9.7°
Enters shadow 20:50:55 13° 138° (SE) 2,232 4.2 -10.3°
